Location: Arroyo de Borox
(40.0100°N, 3.7213°W)
Time: 01:38:41
(UTC+00:00)

Daily predictions for brighter satellites

Satellite Brightness Start Highest point End
(mag) Time Altitude Azimuth Time Altitude Azimuth Time Altitude Azimuth
SL-08 ROCKET BODY 4.3 00:11:57 67° ESE 00:12:20 70° E 00:18:17 10° NNE
Cosmos 1975 Rocket 4.2 00:14:30 36° WNW 00:14:30 36° WNW 00:17:59 10° N
NOSS 3-4 (A) 3.8 00:06:50 10° NW 00:13:56 77° WSW 00:15:35 59° S
NOSS 3-4 (C) 3.8 00:06:55 10° NW 00:14:01 78° WSW 00:15:41 58° S
Cosmos 44 3.8 00:19:22 49° NNE 00:19:22 49° NNE 00:22:38 10° NNE
Cosmos 1818 3.5 00:13:43 10° NNW 00:19:10 81° NE 00:19:10 81° NE
Cosmos 2228 4.1 00:23:01 10° NNW 00:25:54 39° NW 00:25:54 39° NW
Cosmos 1656 4.1 00:33:45 49° E 00:33:45 49° E 00:38:51 10° NNE
H-2A R/B 4.5 00:34:14 19° ENE 00:34:14 19° ENE 00:36:41 10° NNE
Cosmos 923 Rocket 4.2 00:34:34 10° NNW 00:39:42 58° ENE 00:39:56 58° E
Cosmos 381 Rocket 4.3 00:36:42 10° NNW 00:43:04 88° WSW 00:43:46 72° S
Cosmos 1400 Rocket 4.1 00:41:04 10° N 00:43:29 37° N 00:43:29 37° N
EO 1 Delta rocket 4.0 00:46:45 64° NW 00:46:45 64° NW 00:50:47 10° NNW
Cosmos 1937 Rocket 3.5 00:47:15 68° WNW 00:47:15 68° WNW 00:52:15 10° NNE
ISS -0.2 00:51:09 10° NNW 00:52:21 11° N 00:53:31 10° NNE
Cosmos 858 Rocket 4.4 00:54:37 80° NW 00:54:37 80° NW 00:59:40 10° NNE
Cosmos 2315 Rocket 4.1 00:53:33 10° N 00:59:55 70° E 01:01:14 55° SE
DELTA 2 R/B (1) 4.3 01:07:24 40° ESE 01:07:24 40° ESE 01:11:12 10° E
Meteor 2-3 Rocket 4.2 01:10:11 48° ESE 01:11:02 52° E 01:16:40 10° NNE
CZ-2C R/B 2.7 01:11:03 66° SE 01:11:44 76° ENE 01:17:17 10° N
DNEPR-1 R/B 3.9 01:08:38 10° NNW 01:12:14 61° N 01:12:14 61° N
Cosmos 1655 Rocket 3.9 01:20:19 62° SSW 01:21:29 82° W 01:27:55 10° N
Cosmos 1606 Rocket 4.1 01:19:43 10° NNW 01:23:12 52° NW 01:23:12 52° NW
Cosmos 2058 Rocket 3.9 01:20:54 10° N 01:25:08 43° E 01:25:27 42° E
Cosmos 1315 Rocket 4.1 01:21:47 10° N 01:25:07 32° ENE 01:25:07 32° ENE
IDEFIX/ARIANE 42P 3.1 01:26:31 10° NNE 01:31:30 45° E 01:32:15 42° ESE
Cosmos 2360 4.2 01:36:32 60° WSW 01:37:25 72° WNW 01:43:08 10° NNE
CZ-2C R/B 3.2 01:34:18 10° N 01:38:59 51° WNW 01:39:09 51° W
CZ-4C R/B 4.0 01:36:56 12° WNW 01:39:34 18° NW 01:43:16 10° N
Nimbus 7 Rocket 4.5 01:40:17 10° N 01:46:18 72° WNW 01:47:44 52° SW
ADEOS II 4.2 01:44:06 10° NE 01:47:28 17° E 01:50:13 12° SE
Cosmos 494 Rocket 3.8 01:43:21 10° NNW 01:48:36 80° WSW 01:49:10 69° S
Cosmos 1726 Rocket 4.4 01:49:03 10° NNW 01:52:49 41° WNW 01:52:49 41° WNW
Cosmos 2297 Rocket 2.1 01:49:32 10° NNW 01:55:13 84° WSW 01:56:44 50° SSE
Cosmos 1892 Rocket 4.4 01:55:42 38° WNW 01:55:42 38° WNW 01:59:30 10° N
Cosmos 1244 Rocket 4.4 01:55:36 50° SSW 01:57:21 82° W 02:03:42 10° N
MOZ.5/SAFIR/RUBIN 5/SL-8 4.4 01:56:34 35° SE 01:58:11 52° ENE 02:02:41 10° N
Cosmos 2112 Rocket 4.5 01:53:48 10° NNW 01:58:36 43° W 01:58:36 43° W
CZ-2D R/B 3.4 01:54:23 10° NE 01:59:00 31° E 02:01:07 23° SE
SL-19 R/B 4.4 01:53:16 10° NNE 01:59:07 78° WNW 02:00:57 48° SSW
Cosmos 1758 Rocket 3.7 02:05:25 55° SE 02:06:01 62° E 02:10:21 10° NNE
Cosmos 1602 Rocket 4.4 02:05:12 35° SE 02:06:09 40° E 02:10:12 10° NNE
Spot 2 4.3 02:07:01 51° WNW 02:07:01 51° WNW 02:10:35 10° NNW
Cosmos 1980 Rocket 2.8 02:05:14 35° SSE 02:06:58 46° ESE 02:12:18 10° NE
H-2A R/B 4.0 02:09:34 21° WNW 02:09:34 21° WNW 02:11:22 10° NW
Tiangong -0.3 02:10:34 27° E 02:10:34 27° E 02:12:17 10° E
RESURS DK-1 2.9 02:07:15 10° NNW 02:10:15 44° WNW 02:10:15 44° WNW
Cosmos 1626 Rocket 3.3 02:12:06 73° SSW 02:12:30 85° W 02:16:52 10° N
Resurs 1-4 Rocket 2.8 02:08:16 10° NNE 02:13:22 46° E 02:15:34 30° SSE
SeaSat 1 2.4 02:11:35 36° SSE 02:13:38 86° ENE 02:18:33 10° NNW
Nadezhda 1 Rocket 4.3 02:08:58 10° N 02:15:12 63° E 02:19:10 23° SSE
Cosmos 1745 Rocket 4.2 02:12:26 32° SSE 02:15:26 67° E 02:21:44 10° NNE
Meteor 2-2 Rocket 4.1 02:09:49 10° NNW 02:15:28 76° W 02:17:16 44° S
Cosmos 1697 Rocket 2.8 02:14:32 45° SW 02:16:08 65° WNW 02:21:47 10° NNE
Cosmos 1356 Rocket 4.5 02:20:07 10° NNW 02:22:59 30° WNW 02:22:59 30° WNW
FENGYUN 3A 3.6 02:20:32 10° NNE 02:25:58 87° ESE 02:27:58 41° SSW
Cosmos 2227 Rocket 2.2 02:21:03 10° NNW 02:26:46 80° ENE 02:31:20 16° SSE
MSX 4.0 02:23:42 10° N 02:29:19 59° WNW 02:31:23 38° SW
Cosmos-2242 3.3 02:25:20 10° NNW 02:29:21 46° W 02:29:26 46° W
Cosmos 1709 Rocket 4.4 02:25:57 25° SSE 02:29:45 62° E 02:36:01 10° NNE
ISS -0.9 02:27:27 10° NNW 02:30:04 20° NNE 02:32:40 10° ENE
Okean 1 3.5 02:29:37 10° N 02:33:19 61° E 02:34:27 39° SE
H-2A R/B 1.9 02:29:35 10° N 02:33:46 79° WNW 02:34:42 53° SSW
Cosmos 1932 4.4 02:31:45 37° SW 02:34:23 84° WNW 02:40:46 10° NNE
Okean 1-7 Rocket 3.7 02:35:08 39° SSE 02:36:40 71° E 02:41:08 10° NNE
SL-23 DEB 4.0 02:37:57 41° SE 02:37:57 41° SE 02:40:56 10° ENE
ATLAS 2AS CENTAUR R/B 4.2 02:32:25 10° NNW 02:38:36 36° NE 02:44:42 10° ESE
USA 32 4.2 02:39:36 39° SW 02:41:16 55° W 02:46:24 10° N
NPP 4.2 02:40:28 10° N 02:45:34 45° WNW 02:47:39 31° WSW
ALOS 2.6 02:42:08 10° NNE 02:46:39 57° E 02:49:03 26° S
Cosmos 1743 4.2 02:45:31 17° SE 02:47:16 26° E 02:50:07 10° NNE
Cosmos 1125 Rocket 4.0 02:46:24 32° WSW 02:48:23 48° WNW 02:53:29 10° N
Cosmos 192 4.3 02:46:47 37° SSW 02:48:46 86° WNW 02:53:43 10° NNE
COSMOS 2441 4.5 02:44:18 10° N 02:49:09 64° WNW 02:51:05 35° SW
Cosmos 2221 2.5 02:45:49 10° N 02:50:05 76° E 02:52:32 25° SSE
Cosmos 2298 Rocket 4.2 02:48:25 29° S 02:51:10 70° ESE 02:56:28 10° NNE
DELTA 2 R/B (1) 3.5 02:48:05 20° W 02:52:01 87° S 02:57:38 10° E
Cosmos 2151 2.8 02:51:45 38° S 02:53:18 87° W 02:57:28 10° N
Cosmos 1953 Rocket 4.5 02:56:52 16° SSE 03:00:06 44° E 03:04:15 10° NNE
Cosmos 2369 3.7 03:01:07 26° SSW 03:04:25 85° ESE 03:10:06 10° NNE
Cosmos 2333 Rocket 4.5 03:02:41 10° SE 03:06:27 18° E 03:10:13 10° ENE
Meteor 2-11 Rocket 4.5 03:04:17 24° SSW 03:07:59 66° W 03:14:03 10° N
Meteor 1-19 Rocket 4.5 03:03:27 10° N 03:08:53 67° E 03:14:25 10° SSE
IDEFIX/ARIANE 42P 4.1 03:06:44 10° NNW 03:10:37 22° WNW 03:12:57 16° W
Cosmos 1812 Rocket 3.9 03:06:46 10° NNW 03:11:00 47° W 03:12:55 28° SSW
Meteor 1-20 Rocket 4.3 03:08:15 18° S 03:12:41 85° E 03:18:32 10° N
Lacrosse 5 rocket 4.4 03:10:24 10° N 03:12:42 15° NNE 03:14:59 10° ENE
Cosmos 2082 4.1 03:11:04 10° NNW 03:16:44 65° ENE 03:22:18 10° SSE
USA 234 3.5 03:12:51 10° NE 03:19:17 60° SE 03:24:13 18° SSW
CZ-3 R/B 4.1 02:42:11 10° WSW 03:24:15 56° S 03:35:02 10° ESE
Cosmos 1733 3.8 03:22:24 13° SSE 03:24:49 38° E 03:27:38 10° NNE
Cosmos 1825 Rocket 3.8 03:22:38 24° SSW 03:24:59 52° W 03:29:14 10° N
Cosmos 921 Rocket 3.1 03:20:50 10° NNW 03:25:16 83° ENE 03:29:38 10° SSE
Cosmos 2219 3.1 03:19:37 10° NNW 03:25:19 82° WSW 03:30:57 10° SSE
SL-16 R/B 3.1 03:20:31 10° S 03:25:51 45° ESE 03:31:13 10° NE
ADEOS II 2.3 03:22:14 10° N 03:27:21 56° WNW 03:31:01 19° SW
SL-16 R/B 2.9 03:22:01 10° SSE 03:28:14 72° ENE 03:34:28 10° N
Envisat 3.1 03:24:25 10° N 03:29:26 65° WNW 03:33:16 17° SSW
Cosmos 1238 Rocket 3.8 03:25:25 10° NNW 03:30:30 49° W 03:34:33 15° SSW
NOAA 11 4.5 03:26:36 10° N 03:31:54 54° WNW 03:35:56 17° SW
Cosmos 2263 Rocket 2.2 03:26:46 10° NNW 03:32:19 59° WSW 03:37:46 10° S
METEOR-M 4.1 03:32:13 10° NNE 03:37:35 87° ESE 03:42:54 10° SSW
Cosmos 1076 Rocket 3.5 03:34:16 16° SSW 03:37:40 71° W 03:41:57 10° N
Gbstr 26 Del rocket 4.3 03:31:25 10° NW 03:38:16 86° SW 03:46:04 10° SE
CZ-2D R/B 3.1 03:34:20 10° N 03:38:54 31° WNW 03:42:23 15° WSW
DMSP B5D2-2 4.0 03:34:22 10° S 03:39:35 71° WSW 03:44:50 10° NNW
OAO 2 Rocket 3.8 03:41:22 16° WSW 03:44:58 44° S 03:49:47 10° E
Tiangong -1.7 03:42:58 11° W 03:46:07 66° N 03:49:23 10° E
H-2A R/B 3.7 03:42:44 10° NNE 03:46:35 60° E 03:50:24 10° S
Meteor 1-27 Rocket 3.8 03:42:26 10° NNW 03:48:23 81° W 03:54:17 10° S
Cosmos 2074 Rocket 4.1 03:43:01 10° S 03:49:12 85° E 03:55:26 10° N
Cosmos 2237 4.2 03:44:35 13° SSW 03:49:36 76° WNW 03:55:18 10° NNE
Cosmos 1980 Rocket 3.5 03:46:59 12° WSW 03:51:08 25° NW 03:55:44 10° N
Cosmos 44 Rocket 4.4 03:47:02 10° S 03:51:16 36° ESE 03:55:33 10° NE
SeaSat 1 4.3 03:51:11 11° WSW 03:51:32 11° WSW 03:52:53 10° W
Resurs 1-4 Rocket 3.6 03:48:46 10° NNW 03:52:48 22° WNW 03:56:36 11° WSW
Meteor 1-25 Rocket 4.4 03:48:43 12° SSW 03:53:49 55° WNW 03:59:21 10° N
Cosmos 1346 Rocket 3.6 03:53:47 15° SW 03:56:19 31° WNW 03:59:37 10° NNW
Cosmos 1842 Rocket 3.5 03:53:44 10° N 03:58:10 78° W 04:02:31 10° S
BlueWalker 3 1.9 03:57:42 10° NW 04:01:21 79° NE 04:04:57 10° SE
H-2A R/B 1.9 03:57:05 10° N 04:02:05 78° WNW 04:06:57 10° SSW
Cosmos 2181 Rocket 4.1 03:58:39 10° NNW 04:04:40 57° W 04:10:37 10° SSW
ISS -3.9 04:03:43 10° WNW 04:07:04 70° SW 04:10:23 10° SE
Cosmos 2227 Rocket 3.9 04:07:32 10° WNW 04:09:59 13° W 04:12:26 10° WSW
USA 290 3.8 04:11:56 10° NW 04:14:17 18° W 04:16:37 10° SSW
BREEZE M DEB (TANK) 4.3 04:11:15 10° NW 04:14:39 62° NNE 04:25:03 10° ESE
Cosmos 2278 3.8 04:11:14 10° SSW 04:16:51 70° WNW 04:22:29 10° NNE
CENTAUR R/B 2.5 04:12:40 10° SSW 04:17:52 70° ESE 04:24:22 10° NE
Cosmos 1842 2.8 04:15:37 10° NNW 04:18:59 66° W 04:22:21 10° S
Cosmos 1269 Rocket 4.0 04:13:54 10° NNW 04:19:12 80° WSW 04:24:28 10° SSE
Cosmos 1743 4.4 04:19:33 10° WSW 04:21:20 14° WNW 04:23:08 10° NW
CZ-2C R/B 2.5 04:18:03 10° NNE 04:23:01 83° WNW 04:28:05 10° SSW
ALOS 4.2 04:20:40 10° NNW 04:23:09 15° WNW 04:25:37 10° W
ACS3 Solar Sail 3.9 04:22:13 10° NE 04:27:13 27° E 04:32:18 10° SSE
